This is the latest recevied weather packets stored in our database for station/object KD4MBW. If no packets are shown the sender has not sent any weather packets the latest 10 day(s).
| Time | Temp. | Humidity | Pressure | Rain* | Wind** | Luminosity | Snow |
|---|---|---|---|---|---|---|---|
| 1777595757 | 23.89° C | 77% | 1011.4 hPa | 0 mm | - | 0 W/m² | - |
| 1777595453 | 23.89° C | 76% | 1011.4 hPa | 0 mm | - | 0 W/m² | - |
| 1777595149 | 23.89° C | 76% | 1011.4 hPa | 0 mm | - | 1 W/m² | - |
| 1777594845 | 24.44° C | 76% | 1011.3 hPa | 0 mm | - | 2 W/m² | - |
| 1777594542 | 24.44° C | 75% | 1011.1 hPa | 0 mm | - | 3 W/m² | - |
| 1777594239 | 24.44° C | 75% | 1011.1 hPa | 0 mm | - | 5 W/m² | - |
| 1777593934 | 24.44° C | 75% | 1011 hPa | 0 mm | - | 7 W/m² | - |
| 1777593631 | 25° C | 74% | 1011.1 hPa | 0 mm | - | 8 W/m² | - |
| 1777593327 | 25° C | 74% | 1011 hPa | 0 mm | - | 11 W/m² | - |
| 1777593021 | 25° C | 73% | 1010.9 hPa | 0 mm | - | 15 W/m² | - |
| 1777592715 | 25° C | 73% | 1010.8 hPa | 0 mm | - | 21 W/m² | - |
| 1777592411 | 25° C | 72% | 1010.5 hPa | 0 mm | - | 29 W/m² | - |
| 1777592106 | 25.56° C | 73% | 1010.7 hPa | 0 mm | - | 35 W/m² | - |
| 1777591805 | 25.56° C | 72% | 1010.3 hPa | 0 mm | - | 38 W/m² | - |
| 1777591500 | 25.56° C | 72% | 1010.3 hPa | 0 mm | - | 46 W/m² | - |
| 1777591196 | 25.56° C | 71% | 1010.3 hPa | 0 mm | - | 55 W/m² | - |
| 1777590891 | 25.56° C | 71% | 1010.2 hPa | 0 mm | - | 58 W/m² | - |
| 1777590588 | 25.56° C | 70% | 1010.2 hPa | 0 mm | - | 67 W/m² | - |
| 1777590284 | 25.56° C | 70% | 1010.3 hPa | 0 mm | - | 65 W/m² | - |
| 1777589981 | 25.56° C | 70% | 1010.2 hPa | 0 mm | - | 49 W/m² | - |
| 1777589677 | 25.56° C | 70% | 1010.4 hPa | 0 mm | - | 48 W/m² | - |
| 1777589375 | 25.56° C | 70% | 1010.2 hPa | 0 mm | - | 61 W/m² | - |
| 1777589072 | 25.56° C | 70% | 1010 hPa | 0 mm | - | 77 W/m² | - |
| 1777588768 | 25.56° C | 70% | 1010.4 hPa | 0 mm | - | 86 W/m² | - |
| 1777588463 | 26.11° C | 69% | 1010.5 hPa | 0 mm | - | 111 W/m² | - |
* Rain latest hour (hover to see other rain measurements)
** Current wind speed in m/s (hover to see current wind gust speed)